Regional Weather Roundup
Issued by NWS

Home | Current Version | Previous Version | Graphics & Text | Print | Product List | Glossary On
Versions: 1 2 3 4 5 6 7 8 9 10 11 12 13 14 15 16 17 18 19 20 21 22 23 24 25 26 27
000
ASUS45 KTFX 291310
RWRMT
MONTANA REGIONAL WEATHER ROUNDUP
NATIONAL WEATHER SERVICE GREAT FALLS MT
700 AM MDT FRI JUL 29 2016

NOTE: "FAIR" INDICATES FEW OR NO CLOUDS BELOW 12000 FEET WITH NO
SIGNIFICANT WEATHER AND/OR OBSTRUCTIONS TO VISIBILITY.

MTZ001>007-043-291400-
WEST OF THE DIVIDE

CITY           SKY/WX    TMP DP  RH WIND       PRES   REMARKS
KALISPELL      CLEAR     59  55  87 N7        30.06S
MISSOULA       MOCLDY    60  50  69 CALM      30.10R
BUTTE          CLEAR     48  37  65 E3        30.21S
MULLAN PASS    CLEAR     65  40  39 N3        30.22F
ANACONDA         N/A     54  43  66 CALM      30.18R
DEER LODGE       N/A     52  45  76 CALM      30.20R
EUREKA           N/A     54  48  82 CALM      30.09R
HAMILTON         N/A     61  46  59 S3        30.11R
LIBBY            N/A     54  46  76 CALM      30.08R
PLAINS           N/A     53  46  77 CALM      30.06S
RONAN            N/A     55  50  83 CALM      30.10S
$$

MTZ008-052>055-291400-
SOUTHWEST MONTANA

CITY           SKY/WX    TMP DP  RH WIND       PRES   REMARKS
BOZEMAN        CLEAR     58  48  69 S6        30.15R
DILLON         CLEAR     50  42  74 SW9       30.16S
W YELLOWSTONE  CLOUDY    39  34  81 CALM      30.27S
ENNIS          CLEAR     50  41  71 CALM      30.23R
THREE FORKS      N/A     52  52 100 CALM      30.13R
TWIN BRIDGES     N/A     52  38  58 CALM      30.14R
$$

MTZ009-010-012-014-046-048-049-054-291400-
EAST SLOPES AND CENTRAL MONTANA

CITY           SKY/WX    TMP DP  RH WIND       PRES   REMARKS
CUT BANK       CLEAR     58  54  86 N9        30.13F
GREAT FALLS    CLEAR     58  54  86 SW9       30.14F
MALMSTROM AFB  CLEAR     58  55  92 SW10      30.13F
HELENA         PTCLDY    64  50  60 W7        30.15R
CHOTEAU          N/A     57  54  88 SW7       30.16F
CONRAD           N/A     56  56 100 CALM      30.14S
$$

MTZ011-013-016-021-045-047-050-051-291400-
NORTH CENTRAL MONTANA

CITY           SKY/WX    TMP DP  RH WIND       PRES   REMARKS
HAVRE          CLOUDY    61  59  93 SW8       30.07S
N BAR RANCH      N/A     59  48  67 N6G13     30.15S
CHINOOK          N/A     63  61  94 CALM      30.06S
$$

MTZ017>020-022>027-061-062-291400-
NORTHEAST MONTANA

CITY           SKY/WX    TMP DP  RH WIND       PRES   REMARKS
GLASGOW        MOSUNNY   61  56  83 E8        30.06S
JORDAN           N/A     59  57  93 E3        30.07S
SIDNEY         FOG       55  54  96 N3        30.10R VSB 1/4
WOLF POINT     MOSUNNY   58  55  90 E3        30.09S
PLENTYWOOD       N/A     59  57  94 CALM      30.10S
POPLAR           N/A     55  54  94 N3        30.09S
SCOBEY           N/A     51  39  63 CALM      30.07S
$$

MTZ028>42-056>058-291400-
SOUTHCENTRAL AND SOUTHEAST MONTANA

CITY           SKY/WX    TMP DP  RH WIND       PRES   REMARKS
BAKER          CLOUDY    60  59  96 SE8       30.12S
BILLINGS       PTCLDY    61  52  72 SW6       30.10R
LIVINGSTON     CLEAR     53  48  83 NW3       30.16R
MILES CITY     SUNNY     63  58  83 NE3       30.07S
EKALAKA          N/A     59  57  92 SE8       30.09S
FORSYTH          N/A     61  57  88 E3        30.07S
LAUREL           N/A     57  51  80 W1        30.09R
ROUNDUP          N/A     56  48  74 CALM      30.01S
$$

REGIONAL REPORTS...DAKOTAS

CITY           SKY/WX    TMP DP  RH WIND       PRES   REMARKS
WILLISTON      SUNNY     58  54  86 CALM      30.10S
MINOT          MOSUNNY   61  55  81 CALM      30.09F
DICKINSON      PTSUNNY   60  58  92 CALM      30.11R
BEACH          FOG       59  59 100 S8        30.15R VSB 3/4
CROSBY           N/A     57  57 100 S5        30.12S
WATFORD CITY     N/A    N/A N/A N/A MISG        N/A
BISMARCK       MOSUNNY   64  59  83 CALM      30.10R
GRAND FORKS    MOSUNNY   62  57  83 NW3       30.09R
FARGO          SUNNY     63  57  81 N3        30.08S
BUFFALO SD       N/A     60  59  96 SE7       30.06S
RAPID CITY     SUNNY     58  57  97 CALM      30.12F
$$

REGIONAL REPORTS...WYOMING/IDAHO/WASHINGTON

CITY           SKY/WX    TMP DP  RH WIND       PRES   REMARKS
GILLETTE       SUNNY     59  57  93 S10       30.14S
SHERIDAN       SUNNY     55  50  83 S5        30.13R
BUFFALO WY     SUNNY     63  44  50 NW7       30.17R
CODY           CLEAR     59  48  67 CALM      30.18S
YELLOWSTONE LA   N/A     41  38  89 CALM      30.35S
IDAHO FALLS    CLEAR     51  45  79 N6        30.10R
SALMON         CLEAR     52  45  76 CALM      30.11R
BOISE          CLEAR     67  41  38 SE3       29.98S
SPOKANE        PTCLDY    68  52  56 NE3       29.99F
$$

REGIONAL REPORTS...ALBERTA

CITY           SKY/WX    TMP DP  RH WIND       PRES   REMARKS
EDMONTON       CLEAR     55  54  94 SW3       30.01S
CALGARY        PTCLDY    55  50  82 E3        30.11R
LETHBRIDGE     CLEAR     55  55 100 S6        30.10S
MEDICINE HAT   PTCLDY    68  59  73 SW2       30.06S
WATERTON GATE    N/A     52  50  93 SW3         N/A
MILK RIVER       N/A     57  55  94 NW3         N/A
$$

REGIONAL REPORTS...SASKATCHEWAN

CITY           SKY/WX    TMP DP  RH WIND       PRES   REMARKS
SWIFT CURRENT  LGT RAIN  61  59  94 NW3       30.06S
REGINA         PTSUNNY   57  50  77 SE8       30.06S
SASKATOON      LGT RAIN  63  61  94 SW10      30.02R
CYPRESS HILLS    N/A     55  52  88 N5          N/A
VAL MARIE        N/A     55  54  94 NE3         N/A
ROCKGLEN         N/A     54  52  94 S6          N/A
ASSINIBOIA       N/A     55  54  94 S3          N/A
$$




USA.gov is the U.S. government's official web portal to all federal, state and local government web resources and services.